Home   Weather   Gander   Past weeks

Flag for Canada Past Weather in Gander, Newfoundland and Labrador, Canada — Yesterday and Last 2 Weeks

41 °F

Partly cloudy.

Feels Like: 38 °F
Forecast: 36 / 46 °F
Wind: 5 mph from Southwest

Location: Gander Int. Airport

Current Time: Oct 25, 2016 at 2:30:02 AM

Latest Report: Oct 25, 2016 at 1:30 AM

Visibility: 15 mi

Pressure: 29.69 "Hg

Humidity: 81%

Dew Point: 36 °F

Location of GanderLocation

Past Weather in Gander — Graph


Gander Temperature Yesterday

Maximum temperature yesterday: 52 °F (at 12:30 AM)
Minimum temperature yesterday: 41 °F (at 8:30 PM)
Average temperature yesterday: 47 °F

High & Low Weather Summary for the Past Weeks

High64 °F (Oct 23, 3:30 AM)100% (Oct 10, 9:22 AM)30.50 "Hg (Oct 10, 9:22 AM)
Low28 °F (Oct 16, 1:30 AM)30% (Oct 13, 3:30 PM)29.39 "Hg (Oct 24, 7:30 AM)
Average44 °F84%29.96 "Hg
* Reported Oct 10 12:30 AM — Oct 25 12:30 AM, Gander, Weather by CustomWeather, © 2016

Note: Actual official high and low records may vary slightly from our data, if they occured in-between our weather recording intervals... More about our weather records


Gander Weather History for the Previous 24 Hours

Scroll right to see more
Time TempWeatherWind HumidityBarometerVisibility
12:30 AM
Tue, Oct 25
37 °FClear.6 mph87%29.69 "Hg15 mi
11:30 PM
Mon, Oct 24
41 °FPassing clouds.8 mph81%29.68 "Hg15 mi
10:30 PM41 °FPassing clouds.13 mph87%29.67 "Hg15 mi
9:30 PM41 °FPassing clouds.14 mph81%29.66 "Hg15 mi
8:30 PM41 °FPassing clouds.12 mph81%29.64 "Hg15 mi
7:30 PM43 °FPassing clouds.12 mph76%29.62 "Hg15 mi
6:30 PM45 °FPassing clouds.16 mph66%29.60 "Hg20 mi
5:30 PM45 °FPassing clouds.15 mph71%29.57 "Hg20 mi
4:30 PM48 °FScattered clouds.22 mph58%29.53 "Hg20 mi
3:30 PM46 °FSprinkles. Broken clouds.18 mph66%29.52 "Hg20 mi
2:30 PM48 °FSprinkles. Partly sunny.22 mph62%29.49 "Hg20 mi
2:23 PM48 °FSprinkles. Partly sunny.22 mph66%29.49 "Hg20 mi
1:30 PM50 °FPartly sunny.21 mph62%29.47 "Hg20 mi
1:15 PM48 °FSprinkles. Partly sunny.20 mph66%29.48 "Hg15 mi
12:30 PM48 °FSprinkles. Broken clouds.18 mph66%29.47 "Hg15 mi
11:30 AM46 °FPartly sunny.24 mph66%29.46 "Hg15 mi
10:30 AM46 °FBroken clouds.15 mph82%29.44 "Hg15 mi
9:30 AM48 °FBroken clouds.16 mph71%29.43 "Hg15 mi
8:30 AM48 °FPartly sunny.18 mph82%29.41 "Hg12 mi
7:30 AM48 °FDrizzle. Broken clouds.14 mph87%29.39 "Hg8 mi
6:30 AM46 °FOvercast.8 mph93%29.40 "Hg15 mi
5:30 AM48 °FPartly cloudy.7 mph87%29.41 "Hg15 mi
4:30 AM48 °FPassing clouds.9 mph87%29.41 "Hg15 mi
3:30 AM50 °FPassing clouds.9 mph82%29.42 "Hg20 mi
2:30 AM50 °FMostly cloudy.9 mph82%29.41 "Hg20 mi
Weather by CustomWeather, © 2016

See weather overviewHow to use our weather pages